www.pogodaiklimat.ru

Погода и климат >> Архив погоды >> Мозамбик >> Quelimane


ПОГОДА в Quelimane

  • Прогноз погоды в Quelimane
  • Монитор погоды в Quelimane
  • Климат города

АРХИВ ПОГОДЫ в Quelimane

Время (UTC), дата Ветер
(напр.,м/с)
 
Видим.   Явления Облачность Т
(С)
Тd
(С)
f
(%)
Тe
(С)
Тes
(С)
Комфортность P
(гПа)
Po
(гПа)
Тmin
(С)
Tmax
(С)
R
(мм)
R24
(мм)
S
(см)
00 10.08 З 1 30 км 6/6 600 м
[Cu med, cong Ac trans]
+19.4 +17.8 90 +23 +23 комфорт 1021.3 1021.0
03 10.08 З 2 30 км 8/6 600 м
[Cu med, cong Ac trans]
+17.8 +16.5 92 +19 +19 1021.7 1022.0
06 10.08 З 3 30 км 8/4 600 м
[Cu med, cong Ac trans]
+18.6 +16.9 90 +20 +21 1023.3 1023.0 +17.4
09 10.08 Ю 1 30 км 8/5 600 м
[Cu med, cong Ac trans]
+25.6 +19.4 69 +31 +37 очень
душно
1023.1 1023.0
12 10.08 Ю 3 30 км 6/6 600 м
[Cu med, cong Ac trans]
+27.2 +18.8 60 +32 +35 очень
душно
1021.0 1021.0
15 10.08 ЮВ 4 30 км 4/3 600 м
[Cu med, cong Ac trans]
+24.8 +19.2 71 +30 +30 душно 1020.9 1021.0
18 10.08 Ю 2 30 км 4/1 600 м
[Cu med, cong Ac trans]
+22.6 +19.8 84 +29 +29 очень
душно
1022.0 1022.0 +27.5
21 10.08 З 2 30 км ясно +20.4 +19.1 92 +25 +25 комфорт 1022.6 1023.0
00 11.08 З 1 30 км 1/1 600 м
[Cu med, cong]
+19.0 +18.0 94 +22 +22 комфорт 1021.8 1022.0
03 11.08 З 3 30 км 3/3 600 м
[Cu med, cong]
+17.6 +16.6 94 +18 +18 1021.9 1022.0
06 11.08 З 3 200 м туман ?/? +18.4 +17.8 96 +19 +19 1023.8 1024.0 +17.0
09 11.08 ЮВ 2 30 км {туман} 6/6 600 м
[Cu med, cong]
+25.8 +20.3 72 +32 +38 очень
душно
1023.2 1023.0
12 11.08 ЮВ 4 30 км {туман} 4/4 600 м
[Cu med, cong]
+27.6 +17.9 56 +32 +36 очень
душно
1020.9 1021.0
15 11.08 ЮВ 4 30 км 1/1 600 м
[Cu med, cong]
+25.0 +19.1 70 +30 +30 душно 1020.6 1021.0
18 11.08 Ю 1 30 км 1/1 600 м
[Cu med, cong]
+22.4 +20.2 87 +29 +29 очень
душно
1021.3 1021.0 +28.2
21 11.08 штиль 0 30 км 3/3
[Cu med, cong]
+20.6 +19.3 92 +24 +24 комфорт 1022.8 1023.0
00 12.08 штиль 0 30 км 3/3 600 м
[Cu hum]
+20.0 +19.7 98 +23 +23 комфорт 1022.6 1023.0
03 12.08 СЗ 2 30 км 3/3 600 м
[Cu hum]
+16.6 +15.6 94 +17 +17 1022.0 1022.0
06 12.08 З 2 600 м туман ?/? +17.8 +16.1 90 +18 +18 1022.0 1022.0 +15.8
09 12.08 Ю 2 30 км {туман} 5/5 600 м
[Cu med, cong]
+25.8 +20.0 70 +32 +39 очень
душно
1022.2 1022.0
12 12.08 ЮВ 3 30 км {туман} 3/3 600 м
[Cu med, cong]
+27.6 +17.9 56 +32 +38 очень
душно
1020.0 1020.0
15 12.08 ЮВ 4 30 км 3/3 600 м
[Cu med, cong]
+25.6 +18.0 63 +30 +30 душно 1020.0 1020.0
18 12.08 Ю 2 30 км ясно +22.8 +20.0 84 +29 +29 очень
душно
1020.9 1021.0 +30.5
21 12.08 ЮВ 2 30 км 3/3 600 м
[Cu med, cong]
+21.6 +20.0 91 +27 +27 душно 1021.2 1021.0
00 13.08 ЮВ 2 30 км 1/1 600 м
[Cu med, cong]
+19.3 +18.6 96 +22 +22 комфорт 1020.5 1021.0
03 13.08 З 2 200 м туман ясно +16.8 +16.2 96 +17 +17 1020.2 1020.0
06 13.08 СЗ 2 200 м туман ?/? +17.8 +17.5 98 +18 +18 1021.6 1022.0 +14.2
09 13.08 Ю 1 30 км {туман} 5/5 600 м
[Cu med, cong]
+25.4 +20.9 76 +32 +41 очень
душно
1021.7 1022.0
12 13.08 ЮВ 5 30 км {туман} 5/5 600 м
[Cu med, cong]
+27.6 +19.3 61 +33 +36 очень
душно
1019.3 1019.0
15 13.08 ЮВ 4 30 км 3/3 600 м
[Cu med, cong]
+25.2 +19.7 72 +31 +31 очень
душно
1020.0 1020.0
18 13.08 ЮВ 3 30 км 1/1 600 м
[Cu med, cong Ac trans]
+23.4 +20.0 81 +30 +30 очень
душно
1020.7 1021.0 +28.0
21 13.08 ЮВ 2 30 км 1/1 600 м
[Cu med, cong]
+21.8 +19.6 87 +27 +27 душно 1020.7 1021.0
00 14.08 ЮВ 1 30 км 3/3 600 м
[Cu med, cong]
+20.6 +19.3 92 +26 +26 душно 1020.5 1021.0
03 14.08 штиль 0 30 км 1/1 600 м
[Cu med, cong]
+16.8 +15.4 91 +17 +17 1020.6 1021.0
06 14.08 З 1 25 км в посл. час туман 3/3 600 м
[Cu med, cong Ci fib]
+20.0 +18.7 92 +24 +29 комфорт 1023.1 1023.0 +16.4
09 14.08 Ю 2 30 км 3/3 600 м
[Cu med, cong Ci]
+26.6 +17.8 58 +31 +42 душно 1022.3 1022.0
12 14.08 ЮВ 5 30 км 1/1 600 м
[Cu med, cong Ci]
+27.2 +13.4 43 +29 +34 жарко 1020.9 1021.0
15 14.08 ЮВ 4 30 км 5/1 600 м
[Cu med, cong Ci]
+24.6 +17.9 66 +29 +29 душно 1021.2 1021.0
18 14.08 ЮВ 2 30 км 4/1 600 м
[Cu hum Ci]
+22.8 +18.4 76 +28 +28 душно 1021.7 1022.0 +28.0
21 14.08 Ю 1 30 км 3/3 600 м
[Cu med, cong]
+21.6 +18.8 84 +26 +26 душно 1021.9 1022.0
00 15.08 СЗ 2 30 км 5/4 600 м
[Cu med, cong Ac trans]
+17.0 +16.3 96 +18 +18 1020.7 1021.0
03 15.08 З 2 600 м туман ?/? +16.0 +15.3 96 +16 +16 1020.5 1021.0
06 15.08 З 3 30 км {туман} 6/3 600 м
[Cu med, cong Ci fib]
+18.6 +17.6 94 +20 +23 1021.7 1022.0 +16.0
09 15.08 З 4 30 км 6/4 600 м
[Cu med, cong Cs]
+26.2 +15.8 53 +29 +36 жарко 1020.9 1021.0
12 15.08 ЮЗ 3 30 км 5/5 600 м
[Cu med, cong Ci fib]
+27.6 +13.0 41 +29 +33 жарко 1017.4 1017.0
15 15.08 ЮВ 4 30 км 6/3 600 м
[Cu med, cong Ci sp]
+24.2 +15.6 59 +27 +27 жарко 1017.5 1018.0
18 15.08 ЮВ 2 30 км 5/3 600 м
[Cu med, cong Ci sp]
+21.8 +17.8 78 +26 +26 душно 1017.8 1018.0 +28.2
21 15.08 С 1 30 км 5/1 600 м
[Cu med, cong Ci sp]
+18.4 +16.1 86 +20 +20 1017.7 1018.0
00 16.08 С 2 30 км ясно +16.2 +15.2 94 +16 +16 1017.1 1017.0
03 16.08 штиль 0 30 км ясно +15.0 +14.3 96 +15 +15 1016.4 1016.0
06 16.08 СВ 2 30 км ясно +18.8 +16.5 86 +20 +26 1018.3 1018.0 +14.8
09 16.08 СВ 5 30 км ясно +28.0 +15.3 46 +31 +40 душно 1016.0 1016.0
12 16.08 З 2 30 км ясно +31.0 +11.5 30 +31 +42 жарко 1012.3 1012.0
15 16.08 В 5 30 км ясно +26.4 +16.8 56 +30 +30 душно 1012.0 1012.0
18 16.08 В 5 30 км ясно +23.2 +19.5 80 +30 +30 очень
душно
1013.0 1013.0 +31.0
21 16.08 В 4 30 км ясно +22.2 +20.4 90 +29 +29 очень
душно
1013.7 1014.0

 

Местоположение метеостанции Quelimane (Мозамбик): широта -17.88 долгота 36.88 высота над уровнем моря 16 м.

В архиве по умолчанию представлена погода в Quelimane за последнюю неделю. Архивные данные за месяц целиком и за предыдущие месяцы, начиная с января 2011 года, Вы можете получить, выбрав интересующий диапазон дат из раскрывающегося списка и нажав кнопку "Ввод!".

Внимание! Время в таблицах - всемирное. Для получения местного времени необходимо прибавить поправку, которая в Quelimane равна 2 ч.

Смотрите также архив погоды в соседних городах и на ближайших метеорологических станциях:

Погода в Pebane (Мозамбик) (151 км)
Погода в Caia (Мозамбик) (164 км)
Погода в Beira (Мозамбик) (298 км)
Погода в Chichiri (Малави) (306 км)
Погода в Chileka (Малави) (318 км)
Погода в Cuamba (Мозамбик) (341 км)
Погода в Angoche (Мозамбик) (370 км)
Погода в Chimoio (Мозамбик) (385 км)
Погода в Catandica (Мозамбик) (393 км)
Погода в Tete Chingodze (Мозамбик) (396 км)

Пояснения к столбцам:

Ветер - указаны скорость ветра в м/с - средняя за 10 мин, порывы в срок и между сроками (в фигурных скобках) и направление, откуда дует ветер: С - северный, СВ - северо-восточный, В - восточный, ЮВ - юго-восточный, Ю - южный, ЮЗ - юго-западный, З - западный, СЗ - северо-западный.
Видимость - горизонтальная дальность видимости в метрах или километрах. При видимости от 1 до 10 км при отсутствии осадков обычно наблюдается дымка, при ухудшении видимости до 1 км и менее - туман. В сухую погоду видимость может ухудшаться дымом, пылью или мглою.
Явления - указаны атмосферные явления, наблюдавшиеся в срок или в последний час перед сроком; фигурными скобками обозначены явления, наблюдавшиеся между сроками (за 1-3 часа до срока); квадратными скобками обозначены град или гололедные отложения с указанием их диаметра в мм.
Облачность - указаны через наклонную черту общая и нижняя облачность в баллах и высота нижней границы облаков в метрах; квадратными скобками обозначены формы облаков: Ci - перистые, Cs - перисто-слоистые, Cc - перисто-кучевые, Ac - высококучевые, As - высокослоистые, Sc - слоисто-кучевые, Ns - слоисто-дождевые, Cu - кучевые, Cb - кучево-дождевые. Подробнее классификацию облаков см. в Атласе облаков (PDF).
T - Температура воздуха - температура, измеренная на высоте 2 м над землей.
Td - Температура точки росы - температура, при понижении до которой содержащийся в воздухе водяной пар достигнет насыщения.
f - Относительная влажность воздуха - влажноcть воздуха, измеренная на высоте 2 м над землей.
Te - Эффективная температура - температура, которую ощущает одетый по сезону человек в тени. Характеристика душности погоды. При расчете учитывается влияние влажности воздуха и скорости ветра на теплоощущения человека.
Tes - Эффективная температура на солнце - температура, которую ощущает человек, с поправкой на солнечный нагрев. Характеристика знойности погоды. Зависит от высоты солнца над горизонтом, облачности и скорости ветра. Ночью, в пасмурную погоду, а также при ветре 12 м/с и более поправка равна нулю.
P - Атмосферное давление - приведенное к уровню моря атмосферное давление.
Po - Атмосферное давление - измеренное на уровне метеостанции атмосферное давление.
Tmin - Минимальная температура - минимум температуры воздуха на высоте 2 м над землей.
Tmax - Максимальная температура - максимум температуры воздуха на высоте 2 м над землей.
R - Количество осадков - Количество выпавших осадков за период времени, мм. При наведении курсора мыши на число - период времени, за который выпало указанное количество осадков.
R24 - Количество осадков - Количество выпавших осадков за 24 часа, мм.
S - Снежный покров - Высота снежного покрова, см. При наведении курсора мыши на число - состояние снежного покрова и степень покрытия местности в баллах.